When you browse on this site, cookies collect data to enhance your experience and personalize the content and advertising you see.
Visit our Privacy Policy to learn more. By continuing to use the site, you agree to this use of cookies and data.
  • în România
  • Lista ţărilor
  • Pe 7 zile
  • Temperatura apei
  • Hartă satelitară
  • Meteo pe hartă
  • Widget-uri
  • user-avatar
    Intrare

    Meteo pe oră la Buenos Aires

    Astăzi, 25 Martie, Luni

    Timp Temperatura Precipitaţii Vânt Presiune Umiditate
    00:00 +15°C° 0 mm 6 m/s 763 mmHg 59%
    01:00 +14°C° 0 mm 5 m/s 763 mmHg 62%
    02:00 +14°C° 0 mm 5 m/s 763 mmHg 66%
    03:00 +13°C° 0 mm 5 m/s 763 mmHg 68%
    04:00 +13°C° 0 mm 5 m/s 763 mmHg 69%
    05:00 +13°C° 0 mm 5 m/s 763 mmHg 71%
    06:00 +13°C° 0 mm 5 m/s 763 mmHg 69%
    07:00 +14°C° 0 mm 5 m/s 763 mmHg 66%
    08:00 +14°C° 0 mm 5 m/s 764 mmHg 64%
    09:00 +15°C° 0 mm 4 m/s 764 mmHg 59%
    10:00 +18°C° 0 mm 4 m/s 764 mmHg 54%
    11:00 +20°C° 0 mm 3 m/s 764 mmHg 48%
    12:00 +20°C° 0 mm 3 m/s 764 mmHg 45%
    13:00 +21°C° 0 mm 3 m/s 763 mmHg 42%
    14:00 +22°C° 0 mm 3 m/s 763 mmHg 39%
    15:00 +22°C° 0 mm 3 m/s 763 mmHg 41%
    16:00 +21°C° 0 mm 3 m/s 763 mmHg 43%
    17:00 +21°C° 0 mm 4 m/s 763 mmHg 45%
    18:00 +20°C° 0 mm 4 m/s 764 mmHg 47%
    19:00 +19°C° 0 mm 5 m/s 764 mmHg 50%
    20:00 +17°C° 0 mm 5 m/s 765 mmHg 52%
    21:00 +17°C° 0 mm 5 m/s 765 mmHg 55%
    22:00 +16°C° 0 mm 5 m/s 765 mmHg 57%
    23:00 +15°C° 0 mm 6 m/s 766 mmHg 60%

    Mâine, 26 Martie, Marţi

    Timp Temperatura Precipitaţii Vânt Presiune Umiditate
    00:00 +14°C° 0 mm 5 m/s 766 mmHg 61%
    01:00 +14°C° 0 mm 5 m/s 766 mmHg 63%
    02:00 +13°C° 0 mm 4 m/s 766 mmHg 65%
    03:00 +13°C° 0 mm 4 m/s 766 mmHg 66%
    04:00 +13°C° 0 mm 4 m/s 766 mmHg 68%
    05:00 +12°C° 0 mm 4 m/s 766 mmHg 70%
    06:00 +13°C° 0 mm 4 m/s 767 mmHg 67%
    07:00 +13°C° 0 mm 4 m/s 767 mmHg 65%
    08:00 +14°C° 0 mm 4 m/s 767 mmHg 62%
    09:00 +17°C° 0 mm 4 m/s 767 mmHg 56%
    10:00 +18°C° 0 mm 3 m/s 767 mmHg 50%
    11:00 +20°C° 0 mm 3 m/s 768 mmHg 44%
    12:00 +21°C° 0 mm 3 m/s 767 mmHg 40%
    13:00 +23°C° 0 mm 2 m/s 767 mmHg 36%
    14:00 +24°C° 0 mm 2 m/s 766 mmHg 32%
    15:00 +24°C° 0 mm 2 m/s 766 mmHg 34%
    16:00 +22°C° 0 mm 3 m/s 766 mmHg 35%
    17:00 +22°C° 0 mm 3 m/s 766 mmHg 36%
    18:00 +21°C° 0 mm 3 m/s 766 mmHg 43%
    19:00 +20°C° 0 mm 4 m/s 767 mmHg 49%
    20:00 +19°C° 0 mm 4 m/s 767 mmHg 56%
    21:00 +19°C° 0 mm 3 m/s 768 mmHg 60%
    22:00 +19°C° 0 mm 3 m/s 768 mmHg 65%
    23:00 +18°C° 0 mm 3 m/s 768 mmHg 70%

    Poimâine, 27 Martie, Miercuri

    Timp Temperatura Precipitaţii Vânt Presiune Umiditate
    00:00 +18°C° 0.1 mm 3 m/s 768 mmHg 71%
    01:00 +18°C° 0.1 mm 3 m/s 768 mmHg 73%
    02:00 +18°C° 0.1 mm 3 m/s 768 mmHg 74%
    03:00 +18°C° 0 mm 3 m/s 768 mmHg 74%
    04:00 +18°C° 0 mm 3 m/s 768 mmHg 74%
    05:00 +18°C° 0 mm 2 m/s 768 mmHg 74%
    06:00 +18°C° 0 mm 3 m/s 769 mmHg 71%
    07:00 +19°C° 0 mm 3 m/s 769 mmHg 67%
    08:00 +20°C° 0 mm 3 m/s 770 mmHg 64%
    09:00 +21°C° 0 mm 4 m/s 770 mmHg 58%
    10:00 +22°C° 0 mm 4 m/s 770 mmHg 53%
    11:00 +23°C° 0 mm 4 m/s 770 mmHg 47%
    12:00 +23°C° 0 mm 4 m/s 769 mmHg 46%
    13:00 +25°C° 0 mm 4 m/s 769 mmHg 44%
    14:00 +25°C° 0 mm 4 m/s 768 mmHg 43%
    15:00 +25°C° 0 mm 4 m/s 768 mmHg 46%
    16:00 +23°C° 0 mm 5 m/s 768 mmHg 49%
    17:00 +23°C° 0 mm 5 m/s 768 mmHg 53%
    18:00 +23°C° 0 mm 5 m/s 768 mmHg 56%
    19:00 +22°C° 0 mm 5 m/s 769 mmHg 59%
    20:00 +22°C° 0 mm 5 m/s 769 mmHg 62%
    21:00 +21°C° 0 mm 6 m/s 769 mmHg 62%
    22:00 +21°C° 0 mm 6 m/s 769 mmHg 63%
    23:00 +21°C° 0 mm 6 m/s 769 mmHg 63%

    28 Martie, Joi

    Timp Temperatura Precipitaţii Vânt Presiune Umiditate
    00:00 +21°C° 0 mm 6 m/s 769 mmHg 64%
    01:00 +20°C° 0 mm 6 m/s 769 mmHg 65%
    02:00 +20°C° 0 mm 6 m/s 769 mmHg 67%
    03:00 +20°C° 0 mm 5 m/s 769 mmHg 68%
    04:00 +19°C° 0 mm 5 m/s 769 mmHg 69%
    05:00 +19°C° 0 mm 5 m/s 769 mmHg 71%
    06:00 +19°C° 0 mm 5 m/s 769 mmHg 70%
    07:00 +20°C° 0 mm 5 m/s 769 mmHg 70%
    08:00 +20°C° 0 mm 5 m/s 769 mmHg 70%
    09:00 +21°C° 0 mm 4 m/s 769 mmHg 64%
    10:00 +22°C° 0 mm 4 m/s 769 mmHg 59%
    11:00 +25°C° 0 mm 4 m/s 768 mmHg 53%
    12:00 +25°C° 0 mm 3 m/s 768 mmHg 50%
    13:00 +26°C° 0 mm 3 m/s 767 mmHg 46%
    14:00 +27°C° 0 mm 3 m/s 766 mmHg 43%
    15:00 +27°C° 0 mm 3 m/s 766 mmHg 44%
    16:00 +27°C° 0 mm 3 m/s 766 mmHg 45%
    17:00 +26°C° 0 mm 3 m/s 765 mmHg 47%
    18:00 +26°C° 0 mm 3 m/s 765 mmHg 52%
    19:00 +25°C° 0 mm 4 m/s 765 mmHg 57%
    20:00 +25°C° 0 mm 4 m/s 766 mmHg 62%
    21:00 +23°C° 0.1 mm 4 m/s 765 mmHg 63%
    22:00 +23°C° 0.1 mm 5 m/s 765 mmHg 65%
    23:00 +23°C° 0.1 mm 6 m/s 765 mmHg 67%

    29 Martie, Vineri

    Timp Temperatura Precipitaţii Vânt Presiune Umiditate
    00:00 +23°C° 0 mm 6 m/s 765 mmHg 68%
    01:00 +22°C° 0 mm 6 m/s 764 mmHg 70%
    02:00 +22°C° 0 mm 6 m/s 764 mmHg 71%
    03:00 +22°C° 0 mm 6 m/s 764 mmHg 72%
    04:00 +22°C° 0 mm 5 m/s 764 mmHg 74%
    05:00 +21°C° 0 mm 5 m/s 763 mmHg 75%
    06:00 +21°C° 0 mm 5 m/s 763 mmHg 76%
    07:00 +21°C° 0 mm 5 m/s 763 mmHg 76%
    08:00 +21°C° 0 mm 5 m/s 763 mmHg 76%
    09:00 +23°C° 0 mm 5 m/s 763 mmHg 71%
    10:00 +25°C° 0 mm 4 m/s 762 mmHg 65%
    11:00 +26°C° 0 mm 4 m/s 762 mmHg 60%
    12:00 +27°C° 0 mm 4 m/s 761 mmHg 57%
    13:00 +27°C° 0 mm 3 m/s 760 mmHg 55%
    14:00 +28°C° 0 mm 3 m/s 760 mmHg 53%
    15:00 +28°C° 0 mm 3 m/s 759 mmHg 54%
    16:00 +27°C° 0 mm 3 m/s 759 mmHg 55%
    17:00 +27°C° 0 mm 4 m/s 758 mmHg 56%
    18:00 +27°C° 0.1 mm 4 m/s 758 mmHg 60%
    19:00 +26°C° 0.1 mm 3 m/s 758 mmHg 64%
    20:00 +25°C° 0.1 mm 3 m/s 759 mmHg 68%
    21:00 +25°C° 0.2 mm 4 m/s 758 mmHg 71%
    22:00 +25°C° 0.2 mm 4 m/s 758 mmHg 73%
    23:00 +23°C° 0.2 mm 4 m/s 758 mmHg 76%

    30 Martie, Sâmbătă

    Timp Temperatura Precipitaţii Vânt Presiune Umiditate
    00:00 +23°C° 0.3 mm 4 m/s 758 mmHg 78%
    01:00 +23°C° 0.3 mm 4 m/s 758 mmHg 80%
    02:00 +22°C° 0.3 mm 3 m/s 758 mmHg 82%
    03:00 +22°C° 0 mm 3 m/s 757 mmHg 83%
    04:00 +22°C° 0 mm 3 m/s 757 mmHg 84%
    05:00 +22°C° 0 mm 3 m/s 757 mmHg 85%
    06:00 +22°C° 0 mm 3 m/s 758 mmHg 83%
    07:00 +24°C° 0 mm 3 m/s 758 mmHg 82%
    08:00 +24°C° 0 mm 3 m/s 758 mmHg 80%
    09:00 +26°C° 0.1 mm 3 m/s 758 mmHg 71%
    10:00 +28°C° 0.1 mm 2 m/s 758 mmHg 62%
    11:00 +31°C° 0.1 mm 2 m/s 757 mmHg 53%
    12:00 +31°C° 0.1 mm 2 m/s 757 mmHg 50%
    13:00 +31°C° 0.1 mm 2 m/s 757 mmHg 48%
    14:00 +31°C° 0.1 mm 1 m/s 756 mmHg 45%
    15:00 +31°C° 0 mm 2 m/s 756 mmHg 46%
    16:00 +31°C° 0 mm 2 m/s 756 mmHg 46%
    17:00 +30°C° 0 mm 2 m/s 755 mmHg 47%
    18:00 +29°C° 0.7 mm 2 m/s 756 mmHg 52%
    19:00 +28°C° 0.7 mm 1 m/s 757 mmHg 58%
    20:00 +27°C° 0.7 mm 1 m/s 758 mmHg 64%
    21:00 +26°C° 0.3 mm 2 m/s 758 mmHg 68%
    22:00 +25°C° 0.3 mm 3 m/s 758 mmHg 72%
    23:00 +23°C° 0.3 mm 4 m/s 758 mmHg 76%
    Arată mai mult